GW3760 Weather Reports


time (UTC)temp
F
wind
direction
speed
knots
gust
knots
rain 1hr
in
rain 24hr
in
rain mn
in
humidity
%
barometer
mb
20260505124551 53 234 0.0 2.6 0.00 0.00 0.00 86 1015.0
20260505123016 53 210 0.0 0.0 0.00 0.00 0.00 86 1014.9
20260505121539 52 162 0.0 0.0 0.00 0.00 0.00 86 1014.9
20260505120057 52 159 0.0 0.9 0.00 0.00 0.00 86 1014.8
20260505114518 52 149 0.0 1.7 0.00 0.00 0.00 86 1014.9
20260505113039 52 92 0.0 1.7 0.00 0.00 0.00 87 1014.9
20260505111552 52 241 0.0 1.7 0.00 0.00 0.00 87 1014.8
20260505101510 51 100 0.0 1.7 0.00 0.00 0.00 88 1014.4
20260505100045 51 108 0.0 0.0 0.00 0.00 0.00 88 1014.5
20260505094601 51 118 0.0 1.7 0.00 0.00 0.00 88 1014.6
20260505094502 51 117 0.0 1.7 0.00 0.00 0.00 88 1014.5
20260505093038 51 102 0.0 0.9 0.00 0.00 0.00 87 1014.5
20260505091519 52 83 0.0 2.6 0.00 0.00 0.00 86 1014.3
20260505090051 52 119 0.0 1.7 0.00 0.00 0.00 85 1014.1
20260505084535 53 179 0.0 2.6 0.00 0.00 0.00 84 1014.1
20260505083117 53 185 0.0 3.5 0.00 0.00 0.00 84 1014.1
20260505083005 53 185 0.0 4.3 0.00 0.00 0.00 84 1014.1
20260505081551 53 177 0.9 6.1 0.00 0.00 0.00 83 1014.0
20260505080028 54 185 0.0 0.9 0.00 0.00 0.00 83 1013.8
20260505074547 54 239 0.0 2.6 0.00 0.00 0.00 82 1013.6
20260505073015 54 141 0.0 3.5 0.00 0.00 0.00 81 1013.4
20260505071540 55 154 0.0 4.3 0.00 0.00 0.00 80 1013.3
20260505070023 56 213 0.9 3.5 0.00 0.00 0.00 80 1013.2
20260505064604 56 185 1.7 5.2 0.00 0.00 0.00 79 1013.1
20260505064500 56 215 0.9 3.5 0.00 0.00 0.00 79 1013.1
20260505063052 56 129 0.9 6.1 0.00 0.00 0.00 79 1012.8
20260505061537 57 122 0.9 2.6 0.00 0.00 0.00 78 1012.6
20260505060028 58 158 0.9 5.2 0.00 0.00 0.00 77 1012.6
20260505054510 58 222 0.0 1.7 0.00 0.00 0.00 76 1012.6
20260505053030 59 155 1.7 4.3 0.00 0.00 0.00 75 1012.4
20260505051523 61 198 0.9 5.2 0.00 0.00 0.00 73 1012.3
20260505041529 65 179 0.9 2.6 0.00 0.00 0.00 67 1011.4
20260505040055 66 234 0.9 4.3 0.00 0.00 0.00 66 1011.2
20260505034537 66 264 0.9 4.3 0.00 0.00 0.00 66 1010.9
20260505033016 67 187 0.9 7.0 0.00 0.00 0.00 65 1010.8
20260505031537 68 227 1.7 4.3 0.00 0.00 0.00 65 1010.6
20260505030020 69 193 1.7 7.8 0.00 0.00 0.00 66 1010.4
20260505024556 69 179 1.7 7.8 0.00 0.00 0.00 65 1010.2
20260505023016 70 184 3.5 7.0 0.00 0.00 0.00 65 1010.1
20260505021558 71 200 2.6 6.1 0.00 0.00 0.00 64 1010.2
20260505020033 71 168 0.9 8.7 0.00 0.00 0.00 63 1010.1
20260505014518 71 112 0.0 8.7 0.00 0.00 0.00 63 1010.1
20260505013046 71 165 1.7 6.1 0.00 0.00 0.00 63 1010.2
20260505011510 72 165 3.5 6.1 0.00 0.00 0.00 62 1010.4
20260505010041 72 265 3.5 6.1 0.00 0.00 0.00 61 1010.4
20260505004554 73 187 2.6 7.8 0.00 0.00 0.00 60 1010.5
20260505003040 73 231 2.6 7.8 0.00 0.00 0.00 59 1010.5
20260505001600 73 197 2.6 7.0 0.00 0.00 0.00 58 1010.6
20260505001508 73 236 2.6 7.0 0.00 0.00 0.00 59 1010.6
20260505000052 72 200 3.5 8.7 0.00 0.00 0.00 60 1010.7
20260504234629 73 204 1.7 7.0 0.00 0.00 0.00 59 1010.7
20260504233023 72 193 0.9 8.7 0.00 0.00 0.00 60 1010.9
20260504231556 72 203 3.5 7.8 0.00 0.00 0.00 59 1011.1
20260504230010 71 147 1.7 8.7 0.00 0.00 0.00 60 1011.2
20260504224535 71 213 2.6 7.8 0.00 0.00 0.00 59 1011.3
20260504223032 72 173 1.7 7.0 0.00 0.00 0.00 58 1011.5
20260504221559 70 98 0.9 7.0 0.00 0.00 0.00 60 1011.6
20260504220019 70 184 2.6 6.1 0.00 0.00 0.00 60 1011.8
20260504214539 69 187 0.9 7.8 0.00 0.00 0.00 61 1011.8
20260504213057 69 309 1.7 6.1 0.00 0.00 0.00 62 1012.1
20260504211548 67 244 1.7 7.0 0.00 0.00 0.00 65 1012.3
20260504210110 68 208 0.9 6.1 0.00 0.00 0.00 63 1012.5
20260504210002 67 177 1.7 7.0 0.00 0.00 0.00 64 1012.5
20260504204523 66 144 0.9 7.8 0.00 0.00 0.00 64 1012.7
20260504203017 64 225 3.5 7.8 0.00 0.00 0.00 69 1012.8
20260504201530 66 195 0.9 5.2 0.00 0.00 0.00 65 1013.0
20260504200059 64 193 1.7 7.0 0.00 0.00 0.00 70 1013.1
20260504194533 61 195 5.2 8.7 0.00 0.00 0.00 72 1013.2
20260504193058 61 210 1.7 6.1 0.00 0.00 0.00 73 1013.3
20260504191519 60 226 2.6 7.8 0.00 0.00 0.00 75 1013.4
20260504190125 59 182 1.7 7.0 0.00 0.00 0.00 77 1013.5
20260504184520 58 276 2.6 8.7 0.00 0.00 0.00 77 1013.7
20260504183057 58 127 2.6 7.0 0.00 0.00 0.00 78 1013.7
20260504181519 58 225 1.7 7.0 0.00 0.00 0.00 78 1013.7
20260504180109 57 241 2.6 6.1 0.00 0.00 0.00 79 1013.7
20260504174509 57 262 2.6 8.7 0.00 0.00 0.00 80 1013.6
20260504173057 56 199 3.5 6.1 0.00 0.00 0.00 81 1013.5
20260504171511 56 174 2.6 4.3 0.00 0.00 0.00 82 1013.5